Home > Weather > Irving > Past weeks

Flag for U.S.A. Weather for the Past 2 Weeks in Irving, Texas, U.S.A.

Now
39 °F

Clear.


Feels Like: 34 °F
Forecast: 38 / 63 °F
Wind: 7 mph from Southwest

Location: Dallas / Fort Worth International Airport

Current Time: Feb 7, 2016 at 1:10:29 AM

Latest Report: Feb 6, 2016 at 11:53 PM


Visibility: 10 mi

Pressure: 30.34 "Hg

Humidity: 76%

Dew point: 32 °F

Location of IrvingLocation

Historic Weather in Irving — Graph

°F

Irving Temperature Yesterday

Maximum temperature yesterday: 54 °F (at 3:53 PM)
Minimum temperature yesterday: 37 °F (at 4:53 AM)
Average temperature yesterday: 44 °F

High & Low Weather Summary for the Past Weeks

 TemperatureHumidityPressure
High77 °F (Jan 29, 2:53 PM)90% (Jan 31, 4:53 AM)30.51 "Hg (Jan 31, 4:53 AM)
Low29 °F (Jan 23, 1:53 AM)16% (Jan 29, 4:53 PM)29.50 "Hg (Feb 1, 9:53 PM)
Average50 °F53%30.05 "Hg
* Reported Jan 22 11:53 PM — Feb 6 11:53 PM, Irving, Weather by CustomWeather, © 2016

Note: Actual official high and low records may vary slightly from our data, if they occured in-between our weather recording intervals... More about our weather records

Advertising

Irving Weather History for the Previous 24 Hours

 ConditionsComfort  
Time TempWeatherWind HumidityBarometerVisibility
11:53 PM
Sat, Feb 6
39 °FClear.7 mph76%30.34 "Hg10 mi
10:53 PM39 °FClear.8 mph76%30.33 "Hg10 mi
9:53 PM40 °FClear.8 mph73%30.33 "Hg10 mi
8:53 PM42 °FClear.6 mph65%30.34 "Hg10 mi
7:53 PM45 °FClear.5 mph60%30.34 "Hg10 mi
6:53 PM47 °FPassing clouds.3 mph56%30.34 "Hg10 mi
5:53 PM51 °FPassing clouds.No wind50%30.34 "Hg10 mi
4:53 PM52 °FScattered clouds.6 mph47%30.34 "Hg10 mi
3:53 PM54 °FPartly sunny.7 mph45%30.34 "Hg10 mi
2:53 PM51 °FOvercast.8 mph56%30.35 "Hg10 mi
1:53 PM50 °FPartly sunny.12 mph59%30.35 "Hg10 mi
12:53 PM48 °FPartly sunny.10 mph63%30.38 "Hg10 mi
11:53 AM48 °FPartly sunny.9 mph63%30.39 "Hg10 mi
10:53 AM43 °FPartly sunny.13 mph76%30.40 "Hg10 mi
9:53 AM42 °FMostly cloudy.20 mph82%30.34 "Hg10 mi
8:53 AM43 °FLight rain. Mostly cloudy.10 mph82%30.31 "Hg10 mi
7:53 AM38 °FMore clouds than sun.9 mph83%30.27 "Hg10 mi
6:53 AM37 °FPassing clouds.6 mph86%30.25 "Hg10 mi
5:53 AM37 °FPassing clouds.No wind82%30.22 "Hg10 mi
4:53 AM37 °FPassing clouds.3 mph82%30.20 "Hg10 mi
3:53 AM38 °FPassing clouds.6 mph79%30.20 "Hg10 mi
2:53 AM41 °FPassing clouds.6 mph70%30.22 "Hg10 mi
1:53 AM44 °FMostly cloudy.9 mph53%30.21 "Hg10 mi
Weather by CustomWeather, © 2016

See weather overviewHow to use our weather pages